EW2960 Weather Reports


time (UTC)temp
C
wind
direction
speed
KPH
gust
KPH
rain 1hr
cm
rain 24hr
cm
rain mn
cm
humidity
%
barometer
mb
20260504014447 9 279 0.0 0.0 0.00 0.00 0.00 64 1009.2
20260504013944 9 279 0.0 0.0 0.00 0.00 0.00 64 1009.3
20260504013443 10 279 0.0 0.0 0.00 0.00 0.00 63 1009.4
20260504012938 10 279 0.0 0.0 0.00 0.00 0.00 62 1009.3
20260504012437 10 279 0.0 0.0 0.00 0.00 0.00 58 1009.2
20260504011934 10 279 0.0 0.0 0.00 0.00 0.00 59 1009.3
20260504011431 11 279 0.0 0.0 0.00 0.00 0.00 58 1009.1
20260504010926 11 279 0.0 0.0 0.00 0.00 0.00 57 1009.2
20260504010423 11 279 0.0 0.0 0.00 0.00 0.00 56 1009.1
20260504005919 11 266 0.0 0.0 0.00 0.00 0.00 53 1009.1
20260504005415 11 304 0.0 0.0 0.00 0.00 0.00 56 1009.2
20260504004913 11 235 0.0 0.0 0.00 0.00 0.00 55 1009.2
20260504004411 12 46 3.2 3.2 0.00 0.00 0.00 52 1009.0
20260504003908 12 278 0.0 0.0 0.00 0.00 0.00 54 1009.2
20260504003404 12 274 1.6 1.6 0.00 0.00 0.00 53 1009.0
20260504002901 12 265 0.0 0.0 0.00 0.00 0.00 51 1009.0
20260504002358 12 5 0.0 0.0 0.00 0.00 0.00 51 1009.1
20260504001855 12 233 0.0 0.0 0.00 0.00 0.00 51 1009.0
20260504001353 12 332 0.0 0.0 0.00 0.00 0.00 53 1009.0
20260504000849 13 88 1.6 1.6 0.00 0.00 0.00 50 1008.9
20260504000346 13 292 0.0 0.0 0.00 0.00 0.00 50 1009.1
20260503235844 13 265 0.0 0.0 0.00 0.00 0.00 51 1009.1
20260503235341 13 274 0.0 0.0 0.00 0.00 0.00 52 1009.1
20260503234838 13 298 0.0 0.0 0.00 0.00 0.00 49 1009.1
20260503234336 13 263 0.0 0.0 0.00 0.00 0.00 49 1009.2
20260503233834 13 265 0.0 1.6 0.00 0.00 0.00 48 1009.2
20260503233330 13 265 0.0 0.0 0.00 0.00 0.00 48 1009.1
20260503232826 13 222 4.8 4.8 0.00 0.00 0.00 46 1009.1
20260503232324 13 188 1.6 1.6 0.00 0.00 0.00 47 1009.1
20260503231821 13 265 1.6 1.6 0.00 0.00 0.00 47 1009.1
20260503231318 13 262 0.0 0.0 0.00 0.00 0.00 48 1009.2
20260503230814 13 251 0.0 0.0 0.00 0.00 0.00 47 1009.0
20260503230311 13 174 3.2 3.2 0.00 0.00 0.00 47 1009.3
20260503225809 13 264 1.6 1.6 0.00 0.00 0.00 47 1009.0
20260503225305 13 261 4.8 6.4 0.00 0.00 0.00 46 1009.2
20260503224801 14 261 0.0 0.0 0.00 0.00 0.00 46 1009.1
20260503224259 14 263 0.0 1.6 0.00 0.00 0.00 44 1009.2
20260503223756 14 82 3.2 4.8 0.00 0.00 0.00 43 1009.3
20260503223254 14 292 0.0 0.0 0.00 0.00 0.00 44 1009.2
20260503222749 14 169 0.0 1.6 0.00 0.00 0.00 47 1009.4
20260503222247 14 126 6.4 11.3 0.00 0.00 0.00 46 1009.2
20260503221746 15 267 1.6 3.2 0.00 0.00 0.00 44 1009.2
20260503221243 15 306 0.0 0.0 0.00 0.00 0.00 44 1009.3
20260503220740 15 246 1.6 1.6 0.00 0.00 0.00 44 1009.4
20260503220237 15 70 8.0 11.3 0.00 0.00 0.00 44 1009.3
20260503215733 15 189 1.6 1.6 0.00 0.00 0.00 45 1009.4
20260503215230 15 235 3.2 3.2 0.00 0.00 0.00 42 1009.3
20260503214729 15 278 0.0 0.0 0.00 0.00 0.00 45 1009.3
20260503214225 15 162 4.8 4.8 0.00 0.00 0.00 42 1009.3
20260503213723 15 120 1.6 3.2 0.00 0.00 0.00 45 1009.3
20260503213220 15 200 1.6 3.2 0.00 0.00 0.00 41 1009.1
20260503212717 15 313 0.0 1.6 0.00 0.00 0.00 43 1009.1
20260503212215 15 215 3.2 3.2 0.00 0.00 0.00 41 1008.9
20260503211712 16 179 6.4 9.7 0.00 0.00 0.00 41 1009.3
20260503211208 15 150 3.2 4.8 0.00 0.00 0.00 43 1009.1
20260503210704 15 235 3.2 3.2 0.00 0.00 0.00 42 1009.1
20260503210201 15 320 1.6 1.6 0.00 0.00 0.00 39 1009.1
20260503205656 15 271 1.6 1.6 0.00 0.00 0.00 39 1009.1
20260503205152 16 211 3.2 3.2 0.00 0.00 0.00 38 1009.2
20260503204649 16 125 6.4 11.3 0.00 0.00 0.00 39 1008.9
20260503204147 16 233 3.2 3.2 0.00 0.00 0.00 38 1009.2
20260503203644 16 298 0.0 1.6 0.00 0.00 0.00 42 1009.2
20260503203142 15 187 3.2 4.8 0.00 0.00 0.00 40 1009.4
20260503202638 15 284 1.6 1.6 0.00 0.00 0.00 40 1009.3
20260503202137 16 239 1.6 3.2 0.00 0.00 0.00 40 1009.4
20260503201634 16 149 3.2 6.4 0.00 0.00 0.00 39 1009.3
20260503201131 16 305 4.8 6.4 0.00 0.00 0.00 37 1009.5
20260503200627 15 215 1.6 3.2 0.00 0.00 0.00 38 1009.6
20260503200124 16 254 0.0 3.2 0.00 0.00 0.00 38 1009.7
20260503195621 16 249 8.0 11.3 0.00 0.00 0.00 41 1009.7
20260503195118 16 246 8.0 12.9 0.00 0.00 0.00 37 1010.2
20260503194615 15 243 0.0 0.0 0.00 0.00 0.00 40 1009.9
20260503194110 15 239 3.2 3.2 0.00 0.00 0.00 40 1010.0
20260503193607 15 291 0.0 1.6 0.00 0.00 0.00 43 1010.3
20260503193102 15 178 4.8 6.4 0.00 0.00 0.00 39 1010.1
20260503192558 16 285 0.0 0.0 0.00 0.00 0.00 41 1010.3
20260503192054 15 156 3.2 4.8 0.00 0.00 0.00 40 1010.4
20260503191551 15 271 1.6 3.2 0.00 0.00 0.00 38 1010.5
20260503191048 16 211 3.2 3.2 0.00 0.00 0.00 39 1010.6
20260503190539 16 51 3.2 4.8 0.00 0.00 0.00 41 1010.6
20260503190036 15 202 6.4 9.7 0.00 0.00 0.00 42 1010.7
20260503185532 15 137 1.6 3.2 0.00 0.00 0.00 44 1010.7
20260503185027 15 279 1.6 3.2 0.00 0.00 0.00 44 1010.7
20260503184523 15 272 1.6 1.6 0.00 0.00 0.00 45 1011.0
20260503184020 16 255 4.8 6.4 0.00 0.00 0.00 44 1011.0
20260503183516 14 75 3.2 4.8 0.00 0.00 0.00 45 1011.1
20260503183014 15 190 1.6 3.2 0.00 0.00 0.00 44 1010.8
20260503182512 15 120 1.6 3.2 0.00 0.00 0.00 47 1011.3
20260503182009 15 287 3.2 3.2 0.00 0.00 0.00 44 1011.2
20260503181507 15 243 3.2 4.8 0.00 0.00 0.00 41 1011.1
20260503181003 16 239 1.6 1.6 0.00 0.00 0.00 43 1011.2
20260503180500 16 168 6.4 9.7 0.00 0.00 0.00 45 1011.2
20260503175957 15 239 3.2 4.8 0.00 0.00 0.00 42 1011.3
20260503175455 15 238 3.2 6.4 0.00 0.00 0.00 43 1011.6
20260503174951 15 246 3.2 4.8 0.00 0.00 0.00 45 1011.6
20260503174449 15 243 3.2 3.2 0.00 0.00 0.00 43 1011.6
20260503173944 15 270 1.6 3.2 0.00 0.00 0.00 44 1011.5
20260503173440 15 324 3.2 3.2 0.00 0.00 0.00 43 1011.6
20260503172937 15 261 4.8 9.7 0.00 0.00 0.00 42 1011.7
20260503172434 15 23 0.0 1.6 0.00 0.00 0.00 44 1011.6
20260503171931 15 233 3.2 4.8 0.00 0.00 0.00 46 1011.9
20260503171427 15 190 3.2 4.8 0.00 0.00 0.00 47 1011.7
20260503170925 15 71 1.6 3.2 0.00 0.00 0.00 46 1011.8
20260503170421 15 283 3.2 3.2 0.00 0.00 0.00 42 1012.0
20260503150814 12 350 1.6 1.6 0.00 0.00 0.00 46 1013.0
20260503150309 12 114 3.2 3.2 0.00 0.00 0.00 50 1012.9
20260503140234 10 276 1.6 1.6 0.00 0.00 0.00 52 1013.1
20260503131204 8 273 0.0 0.0 0.00 0.00 0.00 60 1013.5
20260503130701 8 307 0.0 1.6 0.00 0.00 0.00 61 1013.4
20260503130158 8 312 1.6 1.6 0.00 0.00 0.00 59 1013.5
20260503120124 5 319 0.0 1.6 0.00 0.00 0.00 77 1013.0
20260503110551 0 358 0.0 0.0 0.00 0.00 0.00 99 1012.9
20260503090438 0 304 0.0 0.0 0.00 0.00 0.00 99 1012.5
20260503081405 0 306 0.0 0.0 0.00 0.00 0.00 99 1012.3
20260503080902 0 307 0.0 0.0 0.00 0.00 0.00 99 1012.6
20260503080358 0 307 0.0 0.0 0.00 0.00 0.00 99 1012.7
20260503072835 0 307 0.0 0.0 0.00 0.00 0.00 98 1012.8
20260503072332 0 307 0.0 0.0 0.00 0.00 0.00 98 1012.5
20260503071828 0 307 0.0 0.0 0.00 0.00 0.00 98 1012.6
20260503071325 0 307 0.0 0.0 0.00 0.00 0.00 98 1012.5
20260503070821 0 307 0.0 0.0 0.00 0.00 0.00 98 1012.6
20260503070320 0 307 0.0 0.0 0.00 0.00 0.00 97 1012.5
20260503060238 1 307 0.0 0.0 0.00 0.00 0.00 95 1012.9
20260503054726 1 307 0.0 0.0 0.00 0.00 0.00 94 1013.0
20260503054223 2 307 0.0 0.0 0.00 0.00 0.00 94 1012.8
20260503053720 1 307 0.0 0.0 0.00 0.00 0.00 93 1013.0
20260503053219 2 307 0.0 0.0 0.00 0.00 0.00 93 1012.8
20260503052715 2 307 0.0 0.0 0.00 0.00 0.00 92 1012.7
20260503052212 2 307 0.0 0.0 0.00 0.00 0.00 92 1012.9
20260503051707 2 307 0.0 0.0 0.00 0.00 0.00 92 1012.7
20260503051205 2 307 0.0 0.0 0.00 0.00 0.00 92 1012.8
20260503050701 2 307 0.0 0.0 0.00 0.00 0.00 92 1012.8
20260503050158 2 307 0.0 0.0 0.00 0.00 0.00 92 1012.9
20260503045655 2 307 0.0 0.0 0.00 0.00 0.00 92 1013.1
20260503045153 2 307 0.0 0.0 0.00 0.00 0.00 91 1013.0
20260503044649 2 307 0.0 0.0 0.00 0.00 0.00 91 1012.9
20260503044147 2 307 0.0 0.0 0.00 0.00 0.00 91 1012.9
20260503043643 2 307 0.0 0.0 0.00 0.00 0.00 91 1013.1
20260503043140 2 307 0.0 0.0 0.00 0.00 0.00 91 1013.1
20260503042636 2 307 0.0 0.0 0.00 0.00 0.00 91 1013.2
20260503042132 2 307 0.0 0.0 0.00 0.00 0.00 90 1013.2
20260503041629 2 307 0.0 0.0 0.00 0.00 0.00 90 1013.0
20260503041127 2 307 0.0 0.0 0.00 0.00 0.00 89 1013.0
20260503040624 2 307 0.0 0.0 0.00 0.00 0.00 89 1013.1
20260503040122 2 307 0.0 0.0 0.00 0.00 0.00 89 1013.1
20260503035618 2 307 0.0 0.0 0.00 0.18 0.18 88 1013.0
20260503035116 2 307 0.0 0.0 0.00 0.18 0.18 88 1013.2
20260503034613 2 307 0.0 0.0 0.00 0.18 0.18 88 1013.2
20260503034110 2 307 0.0 0.0 0.00 0.18 0.18 89 1013.1
20260503033607 2 307 0.0 0.0 0.00 0.18 0.18 88 1013.1
20260503033105 2 307 0.0 0.0 0.00 0.18 0.18 87 1013.3
20260503032603 2 307 0.0 0.0 0.00 0.18 0.18 86 1013.3
20260503032101 2 307 0.0 0.0 0.00 0.18 0.18 85 1013.1
20260503031558 2 307 0.0 0.0 0.00 0.18 0.18 84 1013.2
20260503031055 2 307 0.0 0.0 0.00 0.18 0.18 84 1013.3
20260503030551 2 307 0.0 0.0 0.00 0.18 0.18 85 1013.2
20260503030049 2 307 0.0 0.0 0.00 0.18 0.18 84 1013.2
20260503025545 2 307 0.0 0.0 0.00 0.18 0.18 84 1013.3
20260503025043 2 307 0.0 0.0 0.00 0.18 0.18 83 1013.3
20260503024539 2 307 0.0 0.0 0.00 0.18 0.18 84 1013.2
20260503024037 2 307 0.0 0.0 0.00 0.18 0.18 84 1013.3
20260503023533 2 307 0.0 0.0 0.00 0.18 0.18 84 1013.5
20260503023031 2 307 0.0 0.0 0.00 0.18 0.18 84 1013.4
20260503022526 2 307 0.0 0.0 0.00 0.18 0.18 83 1013.6
20260503022021 3 307 0.0 0.0 0.00 0.18 0.18 84 1013.6
20260503021518 3 307 0.0 0.0 0.00 0.18 0.18 83 1013.4
20260503021015 3 307 0.0 0.0 0.00 0.18 0.18 82 1013.4
20260503020512 3 307 0.0 0.0 0.00 0.18 0.18 82 1013.5
20260503020009 3 307 0.0 0.0 0.00 0.18 0.18 81 1013.5
20260503015506 3 307 0.0 0.0 0.00 0.18 0.18 81 1013.2
20260503015003 3 307 0.0 0.0 0.00 0.18 0.18 80 1013.5